WA3NOA-2 Weather Reports


Display with metric or nautical units.
time (UTC)temp
F
wind
direction
speed
MPH
gust
MPH
rain 1hr
in
rain 24hr
in
rain mn
in
humidity
%
barometer
mb
20260510093308 49 0 0.0 0.0 0.00 0.12 0.00 95 1005.1
20260510093207 49 0 0.0 0.0 0.00 0.12 0.00 95 1005.0
20260510092707 49 0 0.0 0.0 0.00 0.12 0.00 95 1005.2
20260510092207 49 0 0.0 0.0 0.00 0.12 0.00 95 1005.2
20260510091808 49 0 0.0 0.0 0.00 0.12 0.00 95 1005.0
20260510091707 49 0 0.0 0.0 0.00 0.12 0.00 95 1005.0
20260510091207 49 0 0.0 2.0 0.00 0.12 0.00 95 1004.8
20260510090707 49 0 0.0 2.0 0.00 0.12 0.00 95 1005.1
20260510090308 49 0 0.0 1.0 0.00 0.12 0.00 95 1005.1
20260510090207 49 0 0.0 1.0 0.00 0.12 0.00 95 1005.1
20260510085707 49 0 0.0 0.0 0.00 0.12 0.00 95 1005.1
20260510085207 49 0 0.0 1.0 0.00 0.12 0.00 95 1005.2
20260510084808 49 0 0.0 3.0 0.00 0.12 0.00 95 1005.1
20260510084707 49 125 1.0 3.0 0.00 0.12 0.00 95 1005.1
20260510084207 49 0 0.0 0.0 0.00 0.12 0.00 95 1005.5
20260510083707 48 126 1.0 2.0 0.00 0.12 0.00 95 1005.1
20260510083309 48 0 0.0 1.0 0.00 0.12 0.00 95 1005.4
20260510083207 48 0 0.0 1.0 0.00 0.12 0.00 95 1005.4
20260510082707 48 0 0.0 0.0 0.00 0.12 0.00 95 1005.0
20260510082207 48 0 0.0 0.0 0.00 0.12 0.00 95 1005.0
20260510081808 48 0 0.0 1.0 0.00 0.12 0.00 95 1005.5
20260510081707 48 0 0.0 1.0 0.00 0.12 0.00 94 1005.5
20260510081207 48 0 0.0 1.0 0.00 0.12 0.00 94 1005.2
20260510080707 48 30 1.0 5.0 0.00 0.12 0.00 94 1005.3
20260510080308 48 0 0.0 1.0 0.00 0.12 0.00 94 1005.0
20260510080207 48 0 0.0 0.0 0.00 0.12 0.00 94 1004.7
20260510075707 48 0 0.0 0.0 0.00 0.12 0.00 94 1004.6
20260510075207 48 0 0.0 0.0 0.00 0.12 0.00 94 1004.6
20260510074808 48 0 0.0 0.0 0.00 0.12 0.00 94 1004.6
20260510074707 48 0 0.0 0.0 0.00 0.12 0.00 94 1004.5
20260510074207 48 0 0.0 0.0 0.00 0.12 0.00 94 1004.6
20260510073707 49 0 0.0 0.0 0.00 0.12 0.00 94 1004.6
20260510073308 49 0 0.0 0.0 0.00 0.12 0.00 94 1004.6
20260510073207 49 0 0.0 0.0 0.00 0.12 0.00 94 1004.5
20260510072706 49 0 0.0 0.0 0.00 0.12 0.00 94 1004.5
20260510072206 49 0 0.0 0.0 0.00 0.12 0.00 94 1004.6
20260510071808 49 0 0.0 0.0 0.00 0.12 0.00 94 1004.6
20260510071706 49 0 0.0 0.0 0.00 0.12 0.00 94 1004.6
20260510071206 49 0 0.0 0.0 0.00 0.12 0.00 94 1004.6
20260510070706 49 0 0.0 1.0 0.00 0.12 0.00 94 1004.6
20260510070308 49 0 0.0 0.0 0.00 0.12 0.00 94 1004.5
20260510070206 50 0 0.0 0.0 0.00 0.12 0.00 94 1004.4
20260510065706 50 0 0.0 0.0 0.00 0.12 0.00 94 1004.4
20260510065206 50 0 0.0 0.0 0.00 0.12 0.00 94 1004.4
20260510064808 50 0 0.0 0.0 0.00 0.12 0.00 94 1004.4
20260510064706 50 0 0.0 0.0 0.00 0.12 0.00 94 1004.3
20260510064206 50 0 0.0 0.0 0.00 0.12 0.00 94 1004.3
20260510063706 50 0 0.0 0.0 0.00 0.12 0.00 94 1004.2
20260510063308 50 0 0.0 0.0 0.00 0.12 0.00 94 1004.0
20260510063206 50 0 0.0 0.0 0.00 0.12 0.00 94 1004.0
20260510062706 50 0 0.0 0.0 0.00 0.12 0.00 94 1004.0
20260510062206 50 0 0.0 0.0 0.00 0.12 0.00 94 1003.9
20260510061808 51 0 0.0 0.0 0.00 0.12 0.00 94 1004.0
20260510061706 51 0 0.0 0.0 0.00 0.12 0.00 94 1004.0
20260510061206 51 0 0.0 0.0 0.00 0.12 0.00 94 1004.0
20260510060706 51 0 0.0 0.0 0.00 0.12 0.00 94 1004.0
20260510060308 51 0 0.0 0.0 0.00 0.12 0.00 94 1004.0
20260510060206 51 0 0.0 0.0 0.00 0.12 0.00 94 1004.0
20260510055706 51 0 0.0 0.0 0.00 0.12 0.00 94 1004.2
20260510055206 51 0 0.0 0.0 0.00 0.12 0.00 94 1004.3
20260510054808 51 0 0.0 0.0 0.00 0.12 0.00 94 1004.3
20260510054706 51 0 0.0 0.0 0.00 0.12 0.00 94 1004.2
20260510054206 51 0 0.0 0.0 0.00 0.12 0.00 94 1004.3
20260510053706 51 0 0.0 1.0 0.00 0.12 0.00 94 1004.3
20260510053308 51 0 0.0 0.0 0.00 0.12 0.00 94 1004.4
20260510053206 51 0 0.0 0.0 0.00 0.12 0.00 94 1004.4
20260510052706 51 0 0.0 0.0 0.00 0.12 0.00 94 1004.5
20260510052206 51 0 0.0 0.0 0.00 0.12 0.00 94 1004.5
20260510051808 51 0 0.0 0.0 0.00 0.12 0.00 94 1004.5
20260510051706 51 0 0.0 0.0 0.00 0.12 0.00 94 1004.5
20260510051206 50 0 0.0 0.0 0.00 0.12 0.00 94 1004.5
20260510050706 50 0 0.0 0.0 0.00 0.12 0.00 94 1004.4
20260510050308 50 0 0.0 0.0 0.00 0.12 0.00 94 1004.5
20260510050206 50 0 0.0 0.0 0.00 0.12 0.00 94 1004.4
20260510045706 50 0 0.0 0.0 0.00 0.12 0.00 94 1004.6
20260510045206 50 0 0.0 0.0 0.00 0.12 0.00 93 1004.5
20260510044808 50 0 0.0 0.0 0.00 0.12 0.00 93 1004.6
20260510044706 50 0 0.0 0.0 0.00 0.12 0.00 93 1004.6
20260510044206 50 0 0.0 0.0 0.00 0.12 0.00 93 1004.6
20260510043706 50 0 0.0 0.0 0.00 0.12 0.00 93 1004.7
20260510043308 50 0 0.0 0.0 0.00 0.12 0.00 93 1004.7
20260510043206 50 0 0.0 0.0 0.00 0.12 0.00 93 1004.8
20260510042706 50 0 0.0 0.0 0.00 0.12 0.00 93 1004.7
20260510042206 50 0 0.0 0.0 0.00 0.12 0.00 93 1004.8
20260510041808 50 0 0.0 0.0 0.00 0.12 0.00 93 1004.7
20260510041706 50 0 0.0 0.0 0.00 0.12 0.00 93 1004.7
20260510041206 50 0 0.0 0.0 0.00 0.12 0.00 93 1004.7
20260510040706 50 0 0.0 0.0 0.00 0.12 0.00 93 1004.7
20260510040308 50 0 0.0 0.0 0.00 0.12 0.00 93 1004.8
20260510040206 50 0 0.0 0.0 0.00 0.12 0.00 93 1004.8
20260510035706 50 0 0.0 0.0 0.00 0.12 0.12 93 1004.8
20260510035206 50 0 0.0 0.0 0.00 0.12 0.12 93 1004.8
20260510034808 50 0 0.0 0.0 0.00 0.12 0.12 92 1004.8
20260510034706 50 0 0.0 0.0 0.00 0.12 0.12 92 1004.8
20260510034206 50 0 0.0 0.0 0.00 0.12 0.12 92 1004.7
20260510033706 50 0 0.0 0.0 0.00 0.12 0.12 92 1004.8
20260510033308 51 0 0.0 0.0 0.00 0.12 0.12 92 1004.7
20260510033206 51 0 0.0 0.0 0.00 0.12 0.12 92 1004.7
20260510032706 51 0 0.0 0.0 0.00 0.12 0.12 92 1004.6
20260510032206 51 0 0.0 0.0 0.00 0.12 0.12 92 1004.5
20260510031808 51 0 0.0 0.0 0.00 0.12 0.12 92 1004.5
20260510031706 51 0 0.0 0.0 0.00 0.12 0.12 92 1004.4
20260510031206 51 0 0.0 0.0 0.00 0.12 0.12 92 1004.5
20260510030706 51 0 0.0 0.0 0.00 0.12 0.12 92 1004.5
20260510030308 51 0 0.0 0.0 0.00 0.12 0.12 92 1004.4
20260510030206 51 0 0.0 0.0 0.00 0.12 0.12 92 1004.4
20260510025706 51 0 0.0 0.0 0.00 0.12 0.12 93 1004.4
20260510025206 51 0 0.0 0.0 0.00 0.12 0.12 93 1004.3
20260510024808 51 0 0.0 0.0 0.00 0.12 0.12 92 1004.3
20260510024706 51 0 0.0 0.0 0.00 0.12 0.12 92 1004.3
20260510024206 51 0 0.0 0.0 0.00 0.12 0.12 92 1004.1
20260510023706 52 0 0.0 0.0 0.00 0.12 0.12 92 1004.3
20260510023307 52 0 0.0 0.0 0.00 0.12 0.12 92 1004.3
20260510023206 52 0 0.0 0.0 0.00 0.12 0.12 92 1004.4
20260510022706 52 0 0.0 0.0 0.00 0.12 0.12 92 1004.4
20260510022206 52 0 0.0 0.0 0.00 0.12 0.12 92 1004.3
20260510021808 52 0 0.0 0.0 0.00 0.12 0.12 92 1004.3
20260510021706 52 0 0.0 0.0 0.00 0.12 0.12 92 1004.3
20260510021206 52 0 0.0 0.0 0.00 0.12 0.12 92 1004.4
20260510020706 52 0 0.0 0.0 0.00 0.12 0.12 92 1004.1
20260510020308 52 0 0.0 0.0 0.00 0.12 0.12 92 1004.2
20260510020206 52 0 0.0 0.0 0.00 0.12 0.12 92 1004.2
20260510015706 52 0 0.0 0.0 0.00 0.12 0.12 91 1004.1
20260510015206 52 0 0.0 0.0 0.00 0.12 0.12 91 1004.1
20260510014808 52 0 0.0 0.0 0.00 0.12 0.12 91 1004.1
20260510014706 52 0 0.0 0.0 0.00 0.12 0.12 91 1004.1
20260510014206 52 0 0.0 0.0 0.00 0.12 0.12 91 1004.0
20260510013706 52 0 0.0 0.0 0.00 0.12 0.12 91 1004.0
20260510013308 52 0 0.0 0.0 0.00 0.12 0.12 91 1004.1
20260510013206 52 0 0.0 0.0 0.00 0.12 0.12 91 1004.1
20260510012706 53 0 0.0 0.0 0.00 0.12 0.12 91 1004.1
20260510012206 53 0 0.0 0.0 0.00 0.12 0.12 91 1004.0
20260510011807 53 0 0.0 0.0 0.00 0.12 0.12 91 1003.9
20260510011706 53 0 0.0 0.0 0.00 0.12 0.12 91 1004.0
20260510011206 53 0 0.0 0.0 0.00 0.12 0.12 91 1003.9
20260510010706 53 0 0.0 0.0 0.00 0.12 0.12 91 1003.8
20260510010307 53 0 0.0 0.0 0.00 0.12 0.12 91 1003.8
20260510010206 53 0 0.0 0.0 0.00 0.12 0.12 91 1003.8
20260510005706 53 0 0.0 0.0 0.00 0.12 0.12 91 1003.8
20260510005206 53 0 0.0 0.0 0.00 0.12 0.12 91 1003.7
20260510004808 54 0 0.0 0.0 0.00 0.12 0.12 91 1003.7
20260510004706 54 0 0.0 0.0 0.00 0.12 0.12 91 1003.7
20260510004206 54 0 0.0 0.0 0.00 0.12 0.12 91 1003.7
20260510003706 54 0 0.0 0.0 0.00 0.12 0.12 91 1003.6
20260510003308 54 0 0.0 0.0 0.00 0.12 0.12 91 1003.5
20260510003206 54 0 0.0 0.0 0.00 0.12 0.12 91 1003.5
20260510002706 54 0 0.0 0.0 0.00 0.12 0.12 91 1003.4
20260510002206 54 0 0.0 0.0 0.00 0.12 0.12 91 1003.5
20260510001807 55 0 0.0 0.0 0.00 0.12 0.12 91 1003.5
20260510001706 55 0 0.0 0.0 0.00 0.12 0.12 91 1003.5
20260510001206 55 0 0.0 0.0 0.00 0.12 0.12 91 1003.6
20260510000706 55 0 0.0 0.0 0.00 0.12 0.12 91 1003.5
20260510000308 55 0 0.0 0.0 0.00 0.12 0.12 91 1003.5
20260510000206 55 0 0.0 0.0 0.00 0.12 0.12 91 1003.6
20260509235706 55 0 0.0 0.0 0.00 0.12 0.12 91 1003.5
20260509235206 55 0 0.0 0.0 0.00 0.12 0.12 91 1003.5
20260509234807 55 0 0.0 0.0 0.00 0.12 0.12 91 1003.5
20260509234706 55 0 0.0 0.0 0.00 0.12 0.12 91 1003.5
20260509234206 56 0 0.0 0.0 0.00 0.12 0.12 91 1003.4
20260509233706 56 0 0.0 0.0 0.00 0.12 0.12 91 1003.5
20260509233308 55 0 0.0 0.0 0.00 0.12 0.12 91 1003.6
20260509233206 56 0 0.0 0.0 0.00 0.12 0.12 91 1003.5
20260509232706 56 0 0.0 0.0 0.00 0.12 0.12 91 1003.5
20260509232206 56 0 0.0 0.0 0.00 0.12 0.12 91 1003.5
20260509231807 56 0 0.0 0.0 0.00 0.12 0.12 91 1003.5
20260509231706 56 0 0.0 0.0 0.00 0.12 0.12 91 1003.5
20260509231206 56 0 0.0 0.0 0.00 0.12 0.12 91 1003.6
20260509230706 56 0 0.0 0.0 0.00 0.12 0.12 91 1003.7
20260509230307 56 0 0.0 0.0 0.00 0.11 0.12 91 1003.6
20260509230206 56 0 0.0 0.0 0.00 0.11 0.12 91 1003.6
20260509225706 56 0 0.0 0.0 0.00 0.11 0.11 91 1003.5
20260509225206 56 0 0.0 2.0 0.00 0.11 0.11 91 1003.5
20260509224807 56 0 0.0 0.0 0.00 0.11 0.11 91 1003.5
20260509224706 56 0 0.0 0.0 0.00 0.11 0.11 91 1003.5
20260509224206 56 142 1.0 3.0 0.00 0.11 0.11 91 1003.5
20260509223706 56 0 0.0 0.0 0.00 0.11 0.11 91 1003.6
20260509223307 56 0 0.0 0.0 0.00 0.11 0.11 91 1003.6
20260509223206 56 0 0.0 0.0 0.00 0.11 0.11 91 1003.6
20260509222706 56 0 0.0 2.0 0.00 0.11 0.11 91 1003.5
20260509222206 57 0 0.0 1.0 0.00 0.11 0.11 92 1003.5
20260509221807 57 0 0.0 2.0 0.00 0.11 0.11 92 1003.5
20260509221706 57 126 2.0 2.0 0.00 0.11 0.11 92 1003.6
20260509221206 57 0 0.0 2.0 0.00 0.11 0.11 92 1003.6
20260509220706 57 0 0.0 1.0 0.00 0.11 0.11 92 1003.5
20260509220307 57 126 1.0 2.0 0.00 0.11 0.11 92 1003.5
20260509220206 57 126 1.0 2.0 0.00 0.11 0.11 92 1003.5
20260509215706 56 0 0.0 2.0 0.00 0.11 0.11 92 1003.5
20260509215206 56 146 1.0 5.0 0.00 0.11 0.11 93 1003.5
20260509214807 56 144 1.0 4.0 0.00 0.11 0.11 93 1003.5
20260509214706 56 142 3.0 3.0 0.00 0.11 0.11 93 1003.4
20260509214207 56 0 0.0 3.0 0.00 0.11 0.11 93 1003.4
20260509213707 56 109 3.0 3.0 0.00 0.11 0.11 93 1003.3
20260509213308 56 101 1.0 2.0 0.00 0.11 0.11 93 1003.4
20260509213207 56 0 0.0 2.0 0.00 0.11 0.11 93 1003.4
20260509212707 56 0 0.0 0.0 0.00 0.11 0.11 93 1003.5
20260509212207 56 0 0.0 0.0 0.00 0.11 0.11 92 1003.4
20260509211808 56 0 0.0 1.0 0.00 0.11 0.11 93 1003.4
20260509211707 56 0 0.0 1.0 0.00 0.11 0.11 92 1003.5
20260509211207 56 0 0.0 0.0 0.00 0.11 0.11 92 1003.6
20260509210707 56 0 0.0 0.0 0.00 0.11 0.11 92 1003.6
20260509210308 56 0 0.0 1.0 0.00 0.11 0.11 92 1003.7
20260509210207 56 0 0.0 0.0 0.00 0.11 0.11 92 1003.7
20260509205707 56 101 2.0 2.0 0.00 0.11 0.11 92 1003.5
20260509205207 56 0 0.0 0.0 0.00 0.11 0.11 92 1003.6
20260509204808 56 0 0.0 0.0 0.00 0.11 0.11 92 1003.6
20260509204707 56 0 0.0 0.0 0.00 0.11 0.11 92 1003.6
20260509204207 56 0 0.0 2.0 0.00 0.11 0.11 92 1003.6
20260509203707 56 0 0.0 1.0 0.00 0.11 0.11 92 1003.6
20260509203308 56 0 0.0 0.0 0.00 0.11 0.11 93 1003.7
20260509203207 56 0 0.0 0.0 0.00 0.11 0.11 93 1003.7
20260509202707 56 0 0.0 0.0 0.00 0.11 0.11 94 1003.7
20260509202207 56 0 0.0 0.0 0.00 0.11 0.11 93 1003.6
20260509201808 55 0 0.0 0.0 0.00 0.11 0.11 92 1003.5
20260509201707 55 0 0.0 0.0 0.00 0.11 0.11 92 1003.5
20260509201207 55 0 0.0 0.0 0.00 0.11 0.11 92 1003.6
20260509200707 56 0 0.0 2.0 0.00 0.11 0.11 93 1003.4
20260509200308 55 0 0.0 1.0 0.00 0.11 0.11 93 1003.5
20260509200207 55 0 0.0 1.0 0.00 0.11 0.11 93 1003.5
20260509195707 55 128 2.0 3.0 0.00 0.10 0.10 93 1003.4
20260509195207 55 0 0.0 0.0 0.01 0.10 0.10 93 1003.7
20260509194808 56 138 1.0 1.0 0.01 0.10 0.10 93 1003.6
20260509194707 56 0 0.0 0.0 0.01 0.10 0.10 93 1003.7
20260509194207 55 0 0.0 0.0 0.01 0.10 0.10 93 1003.7
20260509193707 55 0 0.0 1.0 0.01 0.10 0.10 93 1003.7
20260509193308 55 0 0.0 1.0 0.01 0.10 0.10 93 1003.7
20260509193207 55 0 0.0 1.0 0.01 0.10 0.10 93 1003.8
20260509192707 55 0 0.0 0.0 0.01 0.10 0.10 93 1003.9
20260509192207 55 0 0.0 0.0 0.01 0.10 0.10 94 1004.1
20260509191808 55 0 0.0 0.0 0.01 0.10 0.10 93 1004.2
20260509191707 55 0 0.0 0.0 0.01 0.10 0.10 93 1004.2
20260509191207 55 0 0.0 0.0 0.01 0.10 0.10 93 1004.2
20260509190706 55 0 0.0 0.0 0.01 0.10 0.10 93 1004.2
20260509190308 55 0 0.0 0.0 0.01 0.10 0.10 93 1004.4
20260509190207 55 0 0.0 0.0 0.01 0.10 0.10 93 1004.4
20260509185707 55 0 0.0 0.0 0.01 0.10 0.10 93 1004.5
20260509185206 55 0 0.0 0.0 0.00 0.09 0.09 93 1004.5
20260509184808 55 0 0.0 1.0 0.00 0.09 0.09 93 1004.6
20260509184706 55 0 0.0 1.0 0.00 0.09 0.09 93 1004.7
20260509184206 55 0 0.0 0.0 0.00 0.09 0.09 93 1004.6
20260509183706 55 0 0.0 0.0 0.00 0.09 0.09 93 1004.8
20260509183308 55 0 0.0 0.0 0.01 0.09 0.09 93 1004.9
20260509183206 55 0 0.0 0.0 0.01 0.09 0.09 93 1004.9
20260509182706 55 0 0.0 1.0 0.01 0.09 0.09 93 1004.8
20260509182206 55 0 0.0 0.0 0.03 0.09 0.09 93 1004.9
20260509181808 55 0 0.0 0.0 0.03 0.09 0.09 93 1004.9
20260509181706 55 0 0.0 0.0 0.03 0.09 0.09 93 1005.0
20260509181206 55 0 0.0 0.0 0.03 0.09 0.09 93 1004.9
20260509180706 55 0 0.0 1.0 0.03 0.09 0.09 93 1004.9
20260509180308 55 0 0.0 0.0 0.03 0.09 0.09 93 1004.9
20260509180206 55 0 0.0 0.0 0.03 0.09 0.09 93 1004.9
20260509175706 54 0 0.0 0.0 0.03 0.09 0.09 92 1005.1
20260509175206 55 0 0.0 0.0 0.03 0.08 0.08 92 1005.2
20260509174808 54 0 0.0 0.0 0.03 0.08 0.08 92 1005.0
20260509174706 54 0 0.0 0.0 0.03 0.08 0.08 92 1005.1
20260509174206 54 0 0.0 0.0 0.03 0.08 0.08 92 1005.2
20260509173706 54 0 0.0 1.0 0.03 0.08 0.08 92 1005.2
20260509173308 55 0 0.0 2.0 0.02 0.07 0.07 91 1005.2
20260509173206 55 205 1.0 2.0 0.02 0.07 0.07 91 1005.2
20260509172706 55 0 0.0 0.0 0.02 0.07 0.07 91 1005.2
20260509172206 55 0 0.0 0.0 0.00 0.06 0.07 91 1005.1
20260509171808 55 0 0.0 0.0 0.00 0.06 0.06 91 1005.1
20260509171706 55 0 0.0 0.0 0.00 0.06 0.06 90 1005.1
20260509171206 56 0 0.0 0.0 0.00 0.05 0.05 91 1005.1
20260509170706 56 0 0.0 0.0 0.00 0.05 0.05 91 1004.9
20260509170308 56 0 0.0 0.0 0.01 0.05 0.05 91 1004.9
20260509170206 56 0 0.0 0.0 0.01 0.05 0.05 91 1004.8
20260509165706 56 0 0.0 0.0 0.01 0.05 0.05 91 1004.8
20260509165206 56 0 0.0 0.0 0.01 0.05 0.05 91 1004.7
20260509164809 56 0 0.0 0.0 0.02 0.05 0.05 91 1004.8
20260509164706 56 0 0.0 0.0 0.02 0.05 0.05 91 1004.7
20260509164206 57 0 0.0 0.0 0.03 0.05 0.05 91 1004.8
20260509163706 57 0 0.0 0.0 0.03 0.05 0.05 91 1004.7
20260509163309 57 0 0.0 0.0 0.03 0.05 0.05 91 1004.8
20260509163206 57 0 0.0 0.0 0.03 0.05 0.05 91 1004.8
20260509162706 57 0 0.0 0.0 0.04 0.05 0.05 92 1004.8
20260509162206 56 0 0.0 0.0 0.04 0.05 0.05 91 1005.0
20260509161808 56 0 0.0 0.0 0.04 0.05 0.05 90 1005.1
20260509161706 56 0 0.0 0.0 0.04 0.05 0.05 90 1005.1
20260509161206 56 0 0.0 0.0 0.04 0.05 0.05 91 1005.1
20260509160706 56 0 0.0 0.0 0.05 0.05 0.05 90 1005.2
20260509160308 57 0 0.0 0.0 0.04 0.04 0.04 91 1005.4
20260509160206 57 0 0.0 0.0 0.04 0.04 0.04 91 1005.4
20260509155706 57 0 0.0 0.0 0.04 0.04 0.04 91 1005.6
20260509155206 57 0 0.0 0.0 0.04 0.04 0.04 90 1005.8
20260509154808 57 0 0.0 2.0 0.03 0.03 0.03 90 1005.9
20260509154706 57 0 0.0 2.0 0.03 0.03 0.03 90 1005.9
20260509154206 58 0 0.0 0.0 0.02 0.02 0.03 89 1005.9
20260509153706 58 0 0.0 1.0 0.02 0.02 0.02 89 1005.9
20260509153308 58 0 0.0 1.0 0.02 0.02 0.02 89 1005.9
20260509153206 58 0 0.0 1.0 0.02 0.02 0.02 89 1005.9
20260509152706 58 0 0.0 0.0 0.01 0.01 0.02 88 1006.0
20260509152206 58 0 0.0 3.0 0.01 0.01 0.01 88 1005.9
20260509151808 58 0 0.0 2.0 0.01 0.01 0.01 87 1005.8
20260509151706 58 0 0.0 2.0 0.01 0.01 0.01 87 1005.8
20260509151206 58 0 0.0 1.0 0.01 0.01 0.01 86 1005.9
20260509150706 59 0 0.0 3.0 0.00 0.00 0.00 85 1006.0
20260509150308 59 0 0.0 5.0 0.00 0.00 0.00 84 1005.8
20260509150206 59 240 2.0 5.0 0.00 0.00 0.00 85 1005.8
20260509145706 59 0 0.0 3.0 0.00 0.00 0.00 83 1005.6
20260509145206 59 0 0.0 2.0 0.00 0.00 0.00 82 1005.8
20260509144808 59 0 0.0 6.0 0.00 0.00 0.00 80 1005.8
20260509144706 59 240 1.0 6.0 0.00 0.00 0.00 80 1005.9
20260509144206 60 240 1.0 4.0 0.00 0.00 0.00 80 1005.7
20260509143706 60 254 2.0 4.0 0.00 0.00 0.00 77 1005.8
20260509143308 60 0 0.0 10.0 0.00 0.00 0.00 76 1005.7
20260509143206 60 266 2.0 10.0 0.00 0.00 0.00 76 1005.7
20260509142706 60 231 4.0 8.0 0.00 0.00 0.00 76 1005.5
20260509142206 59 0 0.0 7.0 0.00 0.00 0.00 77 1005.6
20260509141807 59 261 3.0 6.0 0.00 0.00 0.00 77 1005.5
20260509141706 59 252 1.0 6.0 0.00 0.00 0.00 77 1005.5
20260509141206 59 270 2.0 8.0 0.00 0.00 0.00 77 1005.4
20260509140706 59 260 3.0 5.0 0.00 0.00 0.00 77 1005.3
20260509140308 59 0 0.0 8.0 0.00 0.00 0.00 77 1005.3
20260509140206 59 0 0.0 8.0 0.00 0.00 0.00 77 1005.2
20260509135706 59 0 0.0 4.0 0.00 0.00 0.00 77 1005.2
20260509135206 59 231 3.0 9.0 0.00 0.00 0.00 78 1005.2
20260509134808 59 246 5.0 5.0 0.00 0.00 0.00 78 1005.3
20260509134706 59 269 3.0 5.0 0.00 0.00 0.00 78 1005.1
20260509134206 58 252 1.0 7.0 0.00 0.00 0.00 79 1005.2
20260509133706 58 258 7.0 8.0 0.00 0.00 0.00 79 1005.3
20260509133308 58 247 3.0 7.0 0.00 0.00 0.00 79 1005.1
20260509133206 58 288 2.0 7.0 0.00 0.00 0.00 79 1005.2
20260509132706 58 267 1.0 4.0 0.00 0.00 0.00 81 1005.2
20260509132206 57 247 1.0 6.0 0.00 0.00 0.00 80 1005.3
20260509131807 57 0 0.0 7.0 0.00 0.00 0.00 80 1005.1
20260509131706 57 266 4.0 6.0 0.00 0.00 0.00 80 1005.1
20260509131206 57 254 2.0 6.0 0.00 0.00 0.00 81 1005.1
20260509130706 57 0 0.0 4.0 0.00 0.00 0.00 80 1005.2
20260509130307 57 281 2.0 3.0 0.00 0.00 0.00 81 1005.1
20260509130206 57 0 0.0 3.0 0.00 0.00 0.00 81 1005.2
20260509125706 57 259 7.0 7.0 0.00 0.00 0.00 81 1005.2
20260509125206 56 259 3.0 6.0 0.00 0.00 0.00 81 1005.2
20260509124807 56 255 5.0 5.0 0.00 0.00 0.00 81 1005.2
20260509124706 56 263 1.0 4.0 0.00 0.00 0.00 81 1005.2
20260509124206 56 0 0.0 2.0 0.00 0.00 0.00 82 1005.2
20260509123706 56 249 7.0 8.0 0.00 0.00 0.00 82 1005.3
20260509123307 56 258 1.0 4.0 0.00 0.00 0.00 82 1005.3
20260509123206 56 246 2.0 3.0 0.00 0.00 0.00 82 1005.3
20260509122706 55 262 1.0 3.0 0.00 0.00 0.00 82 1005.4
20260509122206 55 264 2.0 6.0 0.00 0.00 0.00 82 1005.2
20260509121808 55 0 0.0 7.0 0.00 0.00 0.00 83 1005.3
20260509121706 55 0 0.0 7.0 0.00 0.00 0.00 83 1005.2
20260509121206 55 0 0.0 3.0 0.00 0.00 0.00 83 1005.3
20260509120706 54 0 0.0 4.0 0.00 0.00 0.00 83 1005.3
20260509120307 54 223 1.0 8.0 0.00 0.00 0.00 83 1005.3
20260509120206 54 281 2.0 5.0 0.00 0.00 0.00 83 1005.3
20260509115706 54 267 2.0 3.0 0.00 0.00 0.00 83 1005.2
20260509115206 54 0 0.0 3.0 0.00 0.00 0.00 83 1005.1
20260509114807 54 0 0.0 6.0 0.00 0.00 0.00 83 1005.1
20260509114706 54 279 6.0 6.0 0.00 0.00 0.00 83 1005.1
20260509114206 54 265 3.0 4.0 0.00 0.00 0.00 83 1005.0
20260509113706 54 0 0.0 1.0 0.00 0.00 0.00 83 1005.1
20260509113308 54 0 0.0 3.0 0.00 0.00 0.00 83 1005.1
20260509113206 54 254 1.0 3.0 0.00 0.00 0.00 83 1005.1
20260509112706 54 248 4.0 4.0 0.00 0.00 0.00 83 1005.2
20260509112206 53 0 0.0 4.0 0.00 0.00 0.00 83 1005.1
20260509111807 53 0 0.0 3.0 0.00 0.00 0.00 83 1005.1
20260509111706 53 0 0.0 3.0 0.00 0.00 0.00 83 1005.0
20260509111206 53 0 0.0 2.0 0.00 0.00 0.00 83 1005.0
20260509110706 53 0 0.0 3.0 0.00 0.00 0.00 83 1005.0
20260509110307 53 0 0.0 8.0 0.00 0.00 0.00 83 1005.1
20260509110206 53 261 1.0 3.0 0.00 0.00 0.00 83 1005.1
20260509105706 53 0 0.0 0.0 0.00 0.00 0.00 83 1005.0
20260509105206 53 254 1.0 2.0 0.00 0.00 0.00 83 1004.9
20260509104808 53 254 1.0 1.0 0.00 0.00 0.00 82 1004.8
20260509104706 53 0 0.0 0.0 0.00 0.00 0.00 82 1004.9
20260509104206 53 0 0.0 0.0 0.00 0.00 0.00 82 1004.9
20260509103706 53 0 0.0 0.0 0.00 0.00 0.00 82 1004.9
20260509103307 53 265 1.0 2.0 0.00 0.00 0.00 82 1005.0
20260509103206 53 0 0.0 2.0 0.00 0.00 0.00 82 1005.0
20260509102706 53 0 0.0 1.0 0.00 0.00 0.00 82 1004.9
20260509102206 53 0 0.0 2.0 0.00 0.00 0.00 82 1004.9
20260509101808 53 0 0.0 0.0 0.00 0.00 0.00 82 1004.9
20260509101706 53 0 0.0 0.0 0.00 0.00 0.00 82 1004.9
20260509101206 53 0 0.0 2.0 0.00 0.00 0.00 82 1004.8
20260509100706 53 0 0.0 1.0 0.00 0.00 0.00 82 1004.8
20260509100308 53 0 0.0 2.0 0.00 0.00 0.00 81 1004.7
20260509100206 53 265 1.0 2.0 0.00 0.00 0.00 81 1004.8
20260509095706 53 0 0.0 0.0 0.00 0.00 0.00 81 1004.7
20260509095206 53 0 0.0 0.0 0.00 0.00 0.00 80 1004.7
20260509094808 53 0 0.0 2.0 0.00 0.00 0.00 80 1004.7
20260509094706 53 0 0.0 2.0 0.00 0.00 0.00 80 1004.7
20260509094206 53 0 0.0 0.0 0.00 0.00 0.00 80 1004.8
20260509093706 53 0 0.0 0.0 0.00 0.00 0.00 80 1004.7